Terminal Aerodrome Forecast
Issued by NWS

Home | Current Version | Previous Version | Text Only | Print | Product List | Glossary On
Versions: 1 2 3 4 5 6 7 8 9 10 11 12 13 14 15 16 17
000
FTUS41 KALY 240034 AAA
TAFPSF
TAF AMD
KPSF 240034Z 2401/2424 03005KT P6SM FEW050 BKN090
     FM240300 34004KT P6SM FEW050
     FM240600 VRB03KT 3SM BR FEW030
     FM241200 30003KT P6SM SKC
     FM241500 30006KT P6SM SKC=

USA.gov is the U.S. government's official web portal to all federal, state and local government web resources and services.